Regional Weather Roundup
Issued by NWS

Home | Current Version | Previous Version | Graphics & Text | Print | Product List | Glossary Off
Versions: 1 2 3 4 5 6 7 8 9 10 11 12 13 14 15 16 17 18 19 20 21 22 23 24 25 26 27 28 29 30 31 32 33 34 35 36 37 38 39 40 41 42 43 44 45 46 47 48 49 50

994
ASUS43 KTOP 200859
RWRKS

WEATHER ROUNDUP FOR KANSAS
NATIONAL WEATHER SERVICE GOODLAND KS
300 AM CST FRI JAN 20 2017

NOTE:  "FAIR" INDICATES FEW OR NO CLOUDS BELOW 12,000 FEET WITH NO
SIGNIFICANT WEATHER AND/OR OBSTRUCTIONS TO VISIBILITY.

KSZ001>006-013>018-027>032-041>047-201000-
NORTHWEST KANSAS

CITY           SKY/WX    TMP DP  RH WIND       PRES   REMARKS
GOODLAND       FOG       30  30 100 CALM      29.48R VSB 1/2
HAYS           FOG       41  41 100 SE5       29.53R VSB 1/4
HILL CITY      FOG       40  40 100 CALM      29.53R VSB 1/4
RUSSELL        FOG       40  40 100 SE9       29.52R VSB 1/4
$$

KSZ061>065-074>080-084>089-201000-
SOUTHWEST KANSAS

CITY           SKY/WX    TMP DP  RH WIND       PRES   REMARKS
DODGE CITY     CLOUDY    34  33  96 N3        29.50S FOG
ELKHART          N/A     31  25  79 NW7         N/A
GARDEN CITY    CLOUDY    36  34  92 CALM      29.51R
GREAT BEND     LGT RAIN  42  42 100 SE5       29.53S VSB 1
LIBERAL        PTCLDY    36  32  87 N9        29.50F
$$

KSZ066>073-081>083-090>101-201000-
SOUTHEAST KANSAS

CITY           SKY/WX    TMP DP  RH WIND       PRES   REMARKS
CHANUTE        CLOUDY    49  47  93 S8        29.57R
COFFEYVILLE    CLOUDY    48  47  96 E5        29.58S FOG
HUTCHINSON     FOG       43  43 100 SE6       29.54R VSB 1/2
MEDICINE LODGE   N/A     32  32 100 SW3       29.50F
NEWTON         FOG       43  43 100 E7        29.55R VSB 1/4
PARSONS        CLOUDY    49  47  93 SE5       29.59R FOG
WICHITA INTL   CLOUDY    44  44 100 SE5       29.53S FOG
WICHITA JABRA  CLOUDY    44  44 100 SE5       29.54R FOG
WICHITA MCCONL CLOUDY    45  45 100 S7        29.53S FOG
WINFIELD       CLOUDY    47  46  97 E5        29.54F FOG
$$

KSZ007>012-019>026-033>040-048>060-102>105-201000-
NORTHEAST KANSAS

CITY           SKY/WX    TMP DP  RH WIND       PRES   REMARKS
CONCORDIA      FOG       39  39 100 E3        29.53F VSB 1/4
EMPORIA        CLOUDY    43  43 100 SE5       29.56S FOG
LAWRENCE       FOG       44  44 100 E3        29.59F VSB 1/4
MANHATTAN      FOG       44  43  96 NE5       29.55F VSB 1/4
OLATHE IND     CLOUDY    45  45 100 E3        29.58F FOG
OLATHE EXE     FOG       45  45 100 SE5       29.58F VSB 1
SALINA           N/A    N/A N/A N/A MISG        N/A
TOPEKA BILLARD FOG       45  43  93 NE3       29.57F VSB 1/2
TOPEKA FORBES  FOG       46  44  93 E6        29.56F VSB 1/2
$$




USA.gov is the U.S. government's official web portal to all federal, state and local government web resources and services.